Date_Time,Julian_Date,Latitude,Longitude,Instrument_Depth,Water_Salinity
(yyyy-mm-dd hh:mn:ss UTC),(JD),(+ deg. North),(+ deg. East),(m),(ppt)
1982-08-20 18:00:00 UTC,2445202.250000,28.7317,-95.2428,0215,0.3820
1982-08-20 18:30:00 UTC,2445202.270833,28.7317,-95.2428,0215,0.3820
1982-08-20 19:00:00 UTC,2445202.291667,28.7317,-95.2428,0215,0.3820
1982-08-20 19:30:00 UTC,2445202.312500,28.7317,-95.2428,0215,0.3810
1982-08-20 20:00:00 UTC,2445202.333333,28.7317,-95.2428,0215,0.3810
1982-08-20 20:30:00 UTC,2445202.354167,28.7317,-95.2428,0215,0.3810
1982-08-20 21:00:00 UTC,2445202.375000,28.7317,-95.2428,0215,0.3810
1982-08-20 21:30:00 UTC,2445202.395833,28.7317,-95.2428,0215,0.3810
1982-08-20 22:00:00 UTC,2445202.416667,28.7317,-95.2428,0215,0.3800
1982-08-20 22:30:00 UTC,2445202.437500,28.7317,-95.2428,0215,0.3790
1982-08-20 23:00:00 UTC,2445202.458333,28.7317,-95.2428,0215,0.3780
1982-08-20 23:30:00 UTC,2445202.479167,28.7317,-95.2428,0215,0.3780
1982-08-21 00:00:00 UTC,2445202.500000,28.7317,-95.2428,0215,0.3780
1982-08-21 00:30:00 UTC,2445202.520833,28.7317,-95.2428,0215,0.3780
1982-08-21 01:00:00 UTC,2445202.541667,28.7317,-95.2428,0215,0.3780
1982-08-21 01:30:00 UTC,2445202.562500,28.7317,-95.2428,0215,0.3780
1982-08-21 02:00:00 UTC,2445202.583333,28.7317,-95.2428,0215,0.3770
1982-08-21 02:30:00 UTC,2445202.604167,28.7317,-95.2428,0215,0.3760
1982-08-21 03:00:00 UTC,2445202.625000,28.7317,-95.2428,0215,0.3760
1982-08-21 03:30:00 UTC,2445202.645833,28.7317,-95.2428,0215,0.3760
1982-08-21 04:00:00 UTC,2445202.666667,28.7317,-95.2428,0215,0.3770
1982-08-21 04:30:00 UTC,2445202.687500,28.7317,-95.2428,0215,0.3780
1982-08-21 05:00:00 UTC,2445202.708333,28.7317,-95.2428,0215,0.3780
1982-08-21 05:30:00 UTC,2445202.729167,28.7317,-95.2428,0215,0.3780
1982-08-21 06:00:00 UTC,2445202.750000,28.7317,-95.2428,0215,0.3780
1982-08-21 06:30:00 UTC,2445202.770833,28.7317,-95.2428,0215,0.3780
1982-08-21 07:00:00 UTC,2445202.791667,28.7317,-95.2428,0215,0.3780
1982-08-21 07:30:00 UTC,2445202.812500,28.7317,-95.2428,0215,0.3790
1982-08-21 08:00:00 UTC,2445202.833333,28.7317,-95.2428,0215,0.3810
1982-08-21 08:30:00 UTC,2445202.854167,28.7317,-95.2428,0215,0.3820
1982-08-21 09:00:00 UTC,2445202.875000,28.7317,-95.2428,0215,0.3810
1982-08-21 09:30:00 UTC,2445202.895833,28.7317,-95.2428,0215,0.3810
1982-08-21 10:00:00 UTC,2445202.916667,28.7317,-95.2428,0215,0.3810
1982-08-21 10:30:00 UTC,2445202.937500,28.7317,-95.2428,0215,0.3820
1982-08-21 11:00:00 UTC,2445202.958333,28.7317,-95.2428,0215,0.3820
1982-08-21 11:30:00 UTC,2445202.979167,28.7317,-95.2428,0215,0.3820
1982-08-21 12:00:00 UTC,2445203.000000,28.7317,-95.2428,0215,0.3820
1982-08-21 12:30:00 UTC,2445203.020833,28.7317,-95.2428,0215,0.3810
1982-08-21 13:00:00 UTC,2445203.041667,28.7317,-95.2428,0215,0.3800
1982-08-21 13:30:00 UTC,2445203.062500,28.7317,-95.2428,0215,0.3800
1982-08-21 14:00:00 UTC,2445203.083333,28.7317,-95.2428,0215,0.3800
1982-08-21 14:30:00 UTC,2445203.104167,28.7317,-95.2428,0215,0.3800
1982-08-21 15:00:00 UTC,2445203.125000,28.7317,-95.2428,0215,0.3800
1982-08-21 15:30:00 UTC,2445203.145833,28.7317,-95.2428,0215,0.3800
1982-08-21 16:00:00 UTC,2445203.166667,28.7317,-95.2428,0215,0.3800
1982-08-21 16:30:00 UTC,2445203.187500,28.7317,-95.2428,0215,0.3810
1982-08-21 17:00:00 UTC,2445203.208333,28.7317,-95.2428,0215,0.3820
1982-08-21 17:30:00 UTC,2445203.229167,28.7317,-95.2428,0215,0.3820
1982-08-21 18:00:00 UTC,2445203.250000,28.7317,-95.2428,0215,0.3820
1982-08-21 18:30:00 UTC,2445203.270833,28.7317,-95.2428,0215,0.3830
1982-08-21 19:00:00 UTC,2445203.291667,28.7317,-95.2428,0215,0.3840
1982-08-21 19:30:00 UTC,2445203.312500,28.7317,-95.2428,0215,0.3850
1982-08-21 20:00:00 UTC,2445203.333333,28.7317,-95.2428,0215,0.3840
1982-08-21 20:30:00 UTC,2445203.354167,28.7317,-95.2428,0215,0.3840
1982-08-21 21:00:00 UTC,2445203.375000,28.7317,-95.2428,0215,0.3840
1982-08-21 21:30:00 UTC,2445203.395833,28.7317,-95.2428,0215,0.3850
1982-08-21 22:00:00 UTC,2445203.416667,28.7317,-95.2428,0215,0.3850
1982-08-21 22:30:00 UTC,2445203.437500,28.7317,-95.2428,0215,0.3850
1982-08-21 23:00:00 UTC,2445203.458333,28.7317,-95.2428,0215,0.3850
1982-08-21 23:30:00 UTC,2445203.479167,28.7317,-95.2428,0215,0.3840
1982-08-22 00:00:00 UTC,2445203.500000,28.7317,-95.2428,0215,0.3830
1982-08-22 00:30:00 UTC,2445203.520833,28.7317,-95.2428,0215,0.3810
1982-08-22 01:00:00 UTC,2445203.541667,28.7317,-95.2428,0215,0.3810
1982-08-22 01:30:00 UTC,2445203.562500,28.7317,-95.2428,0215,0.3810
1982-08-22 02:00:00 UTC,2445203.583333,28.7317,-95.2428,0215,0.3810
1982-08-22 02:30:00 UTC,2445203.604167,28.7317,-95.2428,0215,0.3800
1982-08-22 03:00:00 UTC,2445203.625000,28.7317,-95.2428,0215,0.3790
1982-08-22 03:30:00 UTC,2445203.645833,28.7317,-95.2428,0215,0.3790
1982-08-22 04:00:00 UTC,2445203.666667,28.7317,-95.2428,0215,0.3790
1982-08-22 04:30:00 UTC,2445203.687500,28.7317,-95.2428,0215,0.3800
1982-08-22 05:00:00 UTC,2445203.708333,28.7317,-95.2428,0215,0.3800
1982-08-22 05:30:00 UTC,2445203.729167,28.7317,-95.2428,0215,0.3800
1982-08-22 06:00:00 UTC,2445203.750000,28.7317,-95.2428,0215,0.3800
1982-08-22 06:30:00 UTC,2445203.770833,28.7317,-95.2428,0215,0.3810
1982-08-22 07:00:00 UTC,2445203.791667,28.7317,-95.2428,0215,0.3820
1982-08-22 07:30:00 UTC,2445203.812500,28.7317,-95.2428,0215,0.3830
1982-08-22 08:00:00 UTC,2445203.833333,28.7317,-95.2428,0215,0.3830
1982-08-22 08:30:00 UTC,2445203.854167,28.7317,-95.2428,0215,0.3820
1982-08-22 09:00:00 UTC,2445203.875000,28.7317,-95.2428,0215,0.3820
1982-08-22 09:30:00 UTC,2445203.895833,28.7317,-95.2428,0215,0.3820
1982-08-22 10:00:00 UTC,2445203.916667,28.7317,-95.2428,0215,0.3810
1982-08-22 10:30:00 UTC,2445203.937500,28.7317,-95.2428,0215,0.3820
1982-08-22 11:00:00 UTC,2445203.958333,28.7317,-95.2428,0215,0.3830
1982-08-22 11:30:00 UTC,2445203.979167,28.7317,-95.2428,0215,0.3840
1982-08-22 12:00:00 UTC,2445204.000000,28.7317,-95.2428,0215,0.3860
1982-08-22 12:30:00 UTC,2445204.020833,28.7317,-95.2428,0215,0.3870
1982-08-22 13:00:00 UTC,2445204.041667,28.7317,-95.2428,0215,0.3860
1982-08-22 13:30:00 UTC,2445204.062500,28.7317,-95.2428,0215,0.3850
1982-08-22 14:00:00 UTC,2445204.083333,28.7317,-95.2428,0215,0.3830
1982-08-22 14:30:00 UTC,2445204.104167,28.7317,-95.2428,0215,0.3820
1982-08-22 15:00:00 UTC,2445204.125000,28.7317,-95.2428,0215,0.3810
1982-08-22 15:30:00 UTC,2445204.145833,28.7317,-95.2428,0215,0.3820
1982-08-22 16:00:00 UTC,2445204.166667,28.7317,-95.2428,0215,0.3820
1982-08-22 16:30:00 UTC,2445204.187500,28.7317,-95.2428,0215,0.3820
1982-08-22 17:00:00 UTC,2445204.208333,28.7317,-95.2428,0215,0.3820
1982-08-22 17:30:00 UTC,2445204.229167,28.7317,-95.2428,0215,0.3830
1982-08-22 18:00:00 UTC,2445204.250000,28.7317,-95.2428,0215,0.3840
1982-08-22 18:30:00 UTC,2445204.270833,28.7317,-95.2428,0215,0.3840
1982-08-22 19:00:00 UTC,2445204.291667,28.7317,-95.2428,0215,0.3840
1982-08-22 19:30:00 UTC,2445204.312500,28.7317,-95.2428,0215,0.3850
1982-08-22 20:00:00 UTC,2445204.333333,28.7317,-95.2428,0215,0.3860
1982-08-22 20:30:00 UTC,2445204.354167,28.7317,-95.2428,0215,0.3870
1982-08-22 21:00:00 UTC,2445204.375000,28.7317,-95.2428,0215,0.3880
1982-08-22 21:30:00 UTC,2445204.395833,28.7317,-95.2428,0215,0.3880
1982-08-22 22:00:00 UTC,2445204.416667,28.7317,-95.2428,0215,0.3870
1982-08-22 22:30:00 UTC,2445204.437500,28.7317,-95.2428,0215,0.3880
1982-08-22 23:00:00 UTC,2445204.458333,28.7317,-95.2428,0215,0.3890
1982-08-22 23:30:00 UTC,2445204.479167,28.7317,-95.2428,0215,0.3890
1982-08-23 00:00:00 UTC,2445204.500000,28.7317,-95.2428,0215,0.3880
1982-08-23 00:30:00 UTC,2445204.520833,28.7317,-95.2428,0215,0.3860
1982-08-23 01:00:00 UTC,2445204.541667,28.7317,-95.2428,0215,0.3840
1982-08-23 01:30:00 UTC,2445204.562500,28.7317,-95.2428,0215,0.3830
1982-08-23 02:00:00 UTC,2445204.583333,28.7317,-95.2428,0215,0.3830
1982-08-23 02:30:00 UTC,2445204.604167,28.7317,-95.2428,0215,0.3820
1982-08-23 03:00:00 UTC,2445204.625000,28.7317,-95.2428,0215,0.3820
1982-08-23 03:30:00 UTC,2445204.645833,28.7317,-95.2428,0215,0.3820
1982-08-23 04:00:00 UTC,2445204.666667,28.7317,-95.2428,0215,0.3820
1982-08-23 04:30:00 UTC,2445204.687500,28.7317,-95.2428,0215,0.3820
1982-08-23 05:00:00 UTC,2445204.708333,28.7317,-95.2428,0215,0.3820
1982-08-23 05:30:00 UTC,2445204.729167,28.7317,-95.2428,0215,0.3830
1982-08-23 06:00:00 UTC,2445204.750000,28.7317,-95.2428,0215,0.3840
1982-08-23 06:30:00 UTC,2445204.770833,28.7317,-95.2428,0215,0.3860
1982-08-23 07:00:00 UTC,2445204.791667,28.7317,-95.2428,0215,0.3880
1982-08-23 07:30:00 UTC,2445204.812500,28.7317,-95.2428,0215,0.3900
1982-08-23 08:00:00 UTC,2445204.833333,28.7317,-95.2428,0215,0.3920
1982-08-23 08:30:00 UTC,2445204.854167,28.7317,-95.2428,0215,0.3930
1982-08-23 09:00:00 UTC,2445204.875000,28.7317,-95.2428,0215,0.3930
1982-08-23 09:30:00 UTC,2445204.895833,28.7317,-95.2428,0215,0.3940
1982-08-23 10:00:00 UTC,2445204.916667,28.7317,-95.2428,0215,0.3960
1982-08-23 10:30:00 UTC,2445204.937500,28.7317,-95.2428,0215,0.3980
1982-08-23 11:00:00 UTC,2445204.958333,28.7317,-95.2428,0215,0.3980
1982-08-23 11:30:00 UTC,2445204.979167,28.7317,-95.2428,0215,0.3960
1982-08-23 12:00:00 UTC,2445205.000000,28.7317,-95.2428,0215,0.3920
1982-08-23 12:30:00 UTC,2445205.020833,28.7317,-95.2428,0215,0.3880
1982-08-23 13:00:00 UTC,2445205.041667,28.7317,-95.2428,0215,0.3860
1982-08-23 13:30:00 UTC,2445205.062500,28.7317,-95.2428,0215,0.3850
1982-08-23 14:00:00 UTC,2445205.083333,28.7317,-95.2428,0215,0.3860
1982-08-23 14:30:00 UTC,2445205.104167,28.7317,-95.2428,0215,0.3890
1982-08-23 15:00:00 UTC,2445205.125000,28.7317,-95.2428,0215,0.3920
1982-08-23 15:30:00 UTC,2445205.145833,28.7317,-95.2428,0215,0.3920
1982-08-23 16:00:00 UTC,2445205.166667,28.7317,-95.2428,0215,0.3920
1982-08-23 16:30:00 UTC,2445205.187500,28.7317,-95.2428,0215,0.3910
1982-08-23 17:00:00 UTC,2445205.208333,28.7317,-95.2428,0215,0.3900
1982-08-23 17:30:00 UTC,2445205.229167,28.7317,-95.2428,0215,0.3900
1982-08-23 18:00:00 UTC,2445205.250000,28.7317,-95.2428,0215,0.3900
1982-08-23 18:30:00 UTC,2445205.270833,28.7317,-95.2428,0215,0.3910
1982-08-23 19:00:00 UTC,2445205.291667,28.7317,-95.2428,0215,0.3920
1982-08-23 19:30:00 UTC,2445205.312500,28.7317,-95.2428,0215,0.3900
1982-08-23 20:00:00 UTC,2445205.333333,28.7317,-95.2428,0215,0.3860
1982-08-23 20:30:00 UTC,2445205.354167,28.7317,-95.2428,0215,0.3800
1982-08-23 21:00:00 UTC,2445205.375000,28.7317,-95.2428,0215,0.3750
1982-08-23 21:30:00 UTC,2445205.395833,28.7317,-95.2428,0215,0.3720
1982-08-23 22:00:00 UTC,2445205.416667,28.7317,-95.2428,0215,0.3730
1982-08-23 22:30:00 UTC,2445205.437500,28.7317,-95.2428,0215,0.3740
1982-08-23 23:00:00 UTC,2445205.458333,28.7317,-95.2428,0215,0.3750
1982-08-23 23:30:00 UTC,2445205.479167,28.7317,-95.2428,0215,0.3770
1982-08-24 00:00:00 UTC,2445205.500000,28.7317,-95.2428,0215,0.3780
1982-08-24 00:30:00 UTC,2445205.520833,28.7317,-95.2428,0215,0.3770
1982-08-24 01:00:00 UTC,2445205.541667,28.7317,-95.2428,0215,0.3750
1982-08-24 01:30:00 UTC,2445205.562500,28.7317,-95.2428,0215,0.3740
1982-08-24 02:00:00 UTC,2445205.583333,28.7317,-95.2428,0215,0.3760
1982-08-24 02:30:00 UTC,2445205.604167,28.7317,-95.2428,0215,0.3790
1982-08-24 03:00:00 UTC,2445205.625000,28.7317,-95.2428,0215,0.3800
1982-08-24 03:30:00 UTC,2445205.645833,28.7317,-95.2428,0215,0.3790
1982-08-24 04:00:00 UTC,2445205.666667,28.7317,-95.2428,0215,0.3810
1982-08-24 04:30:00 UTC,2445205.687500,28.7317,-95.2428,0215,0.3840
1982-08-24 05:00:00 UTC,2445205.708333,28.7317,-95.2428,0215,0.3850
1982-08-24 05:30:00 UTC,2445205.729167,28.7317,-95.2428,0215,0.3850
1982-08-24 06:00:00 UTC,2445205.750000,28.7317,-95.2428,0215,0.3830
1982-08-24 06:30:00 UTC,2445205.770833,28.7317,-95.2428,0215,0.3820
1982-08-24 07:00:00 UTC,2445205.791667,28.7317,-95.2428,0215,0.3820
1982-08-24 07:30:00 UTC,2445205.812500,28.7317,-95.2428,0215,0.3820
1982-08-24 08:00:00 UTC,2445205.833333,28.7317,-95.2428,0215,0.3820
1982-08-24 08:30:00 UTC,2445205.854167,28.7317,-95.2428,0215,0.3820
1982-08-24 09:00:00 UTC,2445205.875000,28.7317,-95.2428,0215,0.3820
1982-08-24 09:30:00 UTC,2445205.895833,28.7317,-95.2428,0215,0.3800
1982-08-24 10:00:00 UTC,2445205.916667,28.7317,-95.2428,0215,0.3770
1982-08-24 10:30:00 UTC,2445205.937500,28.7317,-95.2428,0215,0.3760
1982-08-24 11:00:00 UTC,2445205.958333,28.7317,-95.2428,0215,0.3740
1982-08-24 11:30:00 UTC,2445205.979167,28.7317,-95.2428,0215,0.3720
1982-08-24 12:00:00 UTC,2445206.000000,28.7317,-95.2428,0215,0.3710
1982-08-24 12:30:00 UTC,2445206.020833,28.7317,-95.2428,0215,0.3690
1982-08-24 13:00:00 UTC,2445206.041667,28.7317,-95.2428,0215,0.3680
1982-08-24 13:30:00 UTC,2445206.062500,28.7317,-95.2428,0215,0.3690
1982-08-24 14:00:00 UTC,2445206.083333,28.7317,-95.2428,0215,0.3710
1982-08-24 14:30:00 UTC,2445206.104167,28.7317,-95.2428,0215,0.3730
1982-08-24 15:00:00 UTC,2445206.125000,28.7317,-95.2428,0215,0.3760
1982-08-24 15:30:00 UTC,2445206.145833,28.7317,-95.2428,0215,0.3790
1982-08-24 16:00:00 UTC,2445206.166667,28.7317,-95.2428,0215,0.3800
1982-08-24 16:30:00 UTC,2445206.187500,28.7317,-95.2428,0215,0.3810
1982-08-24 17:00:00 UTC,2445206.208333,28.7317,-95.2428,0215,0.3810
1982-08-24 17:30:00 UTC,2445206.229167,28.7317,-95.2428,0215,0.3810
1982-08-24 18:00:00 UTC,2445206.250000,28.7317,-95.2428,0215,0.3810
1982-08-24 18:30:00 UTC,2445206.270833,28.7317,-95.2428,0215,0.3800
1982-08-24 19:00:00 UTC,2445206.291667,28.7317,-95.2428,0215,0.3800
1982-08-24 19:30:00 UTC,2445206.312500,28.7317,-95.2428,0215,0.3790
1982-08-24 20:00:00 UTC,2445206.333333,28.7317,-95.2428,0215,0.3810
1982-08-24 20:30:00 UTC,2445206.354167,28.7317,-95.2428,0215,0.3820
1982-08-24 21:00:00 UTC,2445206.375000,28.7317,-95.2428,0215,0.3790
1982-08-24 21:30:00 UTC,2445206.395833,28.7317,-95.2428,0215,0.3730
1982-08-24 22:00:00 UTC,2445206.416667,28.7317,-95.2428,0215,0.3700
1982-08-24 22:30:00 UTC,2445206.437500,28.7317,-95.2428,0215,0.3680
1982-08-24 23:00:00 UTC,2445206.458333,28.7317,-95.2428,0215,0.3660
1982-08-24 23:30:00 UTC,2445206.479167,28.7317,-95.2428,0215,0.3640
1982-08-25 00:00:00 UTC,2445206.500000,28.7317,-95.2428,0215,0.3620
1982-08-25 00:30:00 UTC,2445206.520833,28.7317,-95.2428,0215,0.3610
1982-08-25 01:00:00 UTC,2445206.541667,28.7317,-95.2428,0215,0.3610
1982-08-25 01:30:00 UTC,2445206.562500,28.7317,-95.2428,0215,0.3610
1982-08-25 02:00:00 UTC,2445206.583333,28.7317,-95.2428,0215,0.3610
1982-08-25 02:30:00 UTC,2445206.604167,28.7317,-95.2428,0215,0.3610
1982-08-25 03:00:00 UTC,2445206.625000,28.7317,-95.2428,0215,0.3610
1982-08-25 03:30:00 UTC,2445206.645833,28.7317,-95.2428,0215,0.3610
1982-08-25 04:00:00 UTC,2445206.666667,28.7317,-95.2428,0215,0.3610
1982-08-25 04:30:00 UTC,2445206.687500,28.7317,-95.2428,0215,0.3610
1982-08-25 05:00:00 UTC,2445206.708333,28.7317,-95.2428,0215,0.3610
1982-08-25 05:30:00 UTC,2445206.729167,28.7317,-95.2428,0215,0.3610
1982-08-25 06:00:00 UTC,2445206.750000,28.7317,-95.2428,0215,0.3610
1982-08-25 06:30:00 UTC,2445206.770833,28.7317,-95.2428,0215,0.3610
1982-08-25 07:00:00 UTC,2445206.791667,28.7317,-95.2428,0215,0.3610
1982-08-25 07:30:00 UTC,2445206.812500,28.7317,-95.2428,0215,0.3610
1982-08-25 08:00:00 UTC,2445206.833333,28.7317,-95.2428,0215,0.3610
1982-08-25 08:30:00 UTC,2445206.854167,28.7317,-95.2428,0215,0.3610
1982-08-25 09:00:00 UTC,2445206.875000,28.7317,-95.2428,0215,0.3610
1982-08-25 09:30:00 UTC,2445206.895833,28.7317,-95.2428,0215,0.3610
1982-08-25 10:00:00 UTC,2445206.916667,28.7317,-95.2428,0215,0.3610
1982-08-25 10:30:00 UTC,2445206.937500,28.7317,-95.2428,0215,0.3610
1982-08-25 11:00:00 UTC,2445206.958333,28.7317,-95.2428,0215,0.3610
1982-08-25 11:30:00 UTC,2445206.979167,28.7317,-95.2428,0215,0.3610
1982-08-25 12:00:00 UTC,2445207.000000,28.7317,-95.2428,0215,0.3610
1982-08-25 12:30:00 UTC,2445207.020833,28.7317,-95.2428,0215,0.3610
1982-08-25 13:00:00 UTC,2445207.041667,28.7317,-95.2428,0215,0.3610
1982-08-25 13:30:00 UTC,2445207.062500,28.7317,-95.2428,0215,0.3610
1982-08-25 14:00:00 UTC,2445207.083333,28.7317,-95.2428,0215,0.3610
1982-08-25 14:30:00 UTC,2445207.104167,28.7317,-95.2428,0215,0.3610
1982-08-25 15:00:00 UTC,2445207.125000,28.7317,-95.2428,0215,0.3640
1982-08-25 15:30:00 UTC,2445207.145833,28.7317,-95.2428,0215,0.3680
1982-08-25 16:00:00 UTC,2445207.166667,28.7317,-95.2428,0215,0.3730
1982-08-25 16:30:00 UTC,2445207.187500,28.7317,-95.2428,0215,0.3760
1982-08-25 17:00:00 UTC,2445207.208333,28.7317,-95.2428,0215,0.3780
1982-08-25 17:30:00 UTC,2445207.229167,28.7317,-95.2428,0215,0.3800
1982-08-25 18:00:00 UTC,2445207.250000,28.7317,-95.2428,0215,0.3840
1982-08-25 18:30:00 UTC,2445207.270833,28.7317,-95.2428,0215,0.3870
1982-08-25 19:00:00 UTC,2445207.291667,28.7317,-95.2428,0215,0.3830
1982-08-25 19:30:00 UTC,2445207.312500,28.7317,-95.2428,0215,0.3780
1982-08-25 20:00:00 UTC,2445207.333333,28.7317,-95.2428,0215,0.3780
1982-08-25 20:30:00 UTC,2445207.354167,28.7317,-95.2428,0215,0.3800
1982-08-25 21:00:00 UTC,2445207.375000,28.7317,-95.2428,0215,0.3810
1982-08-25 21:30:00 UTC,2445207.395833,28.7317,-95.2428,0215,0.3790
1982-08-25 22:00:00 UTC,2445207.416667,28.7317,-95.2428,0215,0.3750
1982-08-25 22:30:00 UTC,2445207.437500,28.7317,-95.2428,0215,0.3730
1982-08-25 23:00:00 UTC,2445207.458333,28.7317,-95.2428,0215,0.3710
1982-08-25 23:30:00 UTC,2445207.479167,28.7317,-95.2428,0215,0.3680
1982-08-26 00:00:00 UTC,2445207.500000,28.7317,-95.2428,0215,0.3660
1982-08-26 00:30:00 UTC,2445207.520833,28.7317,-95.2428,0215,0.3650
1982-08-26 01:00:00 UTC,2445207.541667,28.7317,-95.2428,0215,0.3650
1982-08-26 01:30:00 UTC,2445207.562500,28.7317,-95.2428,0215,0.3650
1982-08-26 02:00:00 UTC,2445207.583333,28.7317,-95.2428,0215,0.3660
1982-08-26 02:30:00 UTC,2445207.604167,28.7317,-95.2428,0215,0.3680
1982-08-26 03:00:00 UTC,2445207.625000,28.7317,-95.2428,0215,0.3700
1982-08-26 03:30:00 UTC,2445207.645833,28.7317,-95.2428,0215,0.3710
1982-08-26 04:00:00 UTC,2445207.666667,28.7317,-95.2428,0215,0.3720
1982-08-26 04:30:00 UTC,2445207.687500,28.7317,-95.2428,0215,0.3740
1982-08-26 05:00:00 UTC,2445207.708333,28.7317,-95.2428,0215,0.3740
1982-08-26 05:30:00 UTC,2445207.729167,28.7317,-95.2428,0215,0.3730
1982-08-26 06:00:00 UTC,2445207.750000,28.7317,-95.2428,0215,0.3750
1982-08-26 06:30:00 UTC,2445207.770833,28.7317,-95.2428,0215,0.3790
1982-08-26 07:00:00 UTC,2445207.791667,28.7317,-95.2428,0215,0.3800
1982-08-26 07:30:00 UTC,2445207.812500,28.7317,-95.2428,0215,0.3800
1982-08-26 08:00:00 UTC,2445207.833333,28.7317,-95.2428,0215,0.3810
1982-08-26 08:30:00 UTC,2445207.854167,28.7317,-95.2428,0215,0.3790
1982-08-26 09:00:00 UTC,2445207.875000,28.7317,-95.2428,0215,0.3760
1982-08-26 09:30:00 UTC,2445207.895833,28.7317,-95.2428,0215,0.3750
1982-08-26 10:00:00 UTC,2445207.916667,28.7317,-95.2428,0215,0.3740
1982-08-26 10:30:00 UTC,2445207.937500,28.7317,-95.2428,0215,0.3730
1982-08-26 11:00:00 UTC,2445207.958333,28.7317,-95.2428,0215,0.3720
1982-08-26 11:30:00 UTC,2445207.979167,28.7317,-95.2428,0215,0.3710
1982-08-26 12:00:00 UTC,2445208.000000,28.7317,-95.2428,0215,0.3690
1982-08-26 12:30:00 UTC,2445208.020833,28.7317,-95.2428,0215,0.3680
1982-08-26 13:00:00 UTC,2445208.041667,28.7317,-95.2428,0215,0.3670
1982-08-26 13:30:00 UTC,2445208.062500,28.7317,-95.2428,0215,0.3660
1982-08-26 14:00:00 UTC,2445208.083333,28.7317,-95.2428,0215,0.3660
1982-08-26 14:30:00 UTC,2445208.104167,28.7317,-95.2428,0215,0.3670
1982-08-26 15:00:00 UTC,2445208.125000,28.7317,-95.2428,0215,0.3710
1982-08-26 15:30:00 UTC,2445208.145833,28.7317,-95.2428,0215,0.3760
1982-08-26 16:00:00 UTC,2445208.166667,28.7317,-95.2428,0215,0.3780
1982-08-26 16:30:00 UTC,2445208.187500,28.7317,-95.2428,0215,0.3790
1982-08-26 17:00:00 UTC,2445208.208333,28.7317,-95.2428,0215,0.3790
1982-08-26 17:30:00 UTC,2445208.229167,28.7317,-95.2428,0215,0.3790
1982-08-26 18:00:00 UTC,2445208.250000,28.7317,-95.2428,0215,0.3780
1982-08-26 18:30:00 UTC,2445208.270833,28.7317,-95.2428,0215,0.3770
1982-08-26 19:00:00 UTC,2445208.291667,28.7317,-95.2428,0215,0.3770
1982-08-26 19:30:00 UTC,2445208.312500,28.7317,-95.2428,0215,0.3780
1982-08-26 20:00:00 UTC,2445208.333333,28.7317,-95.2428,0215,0.3770
1982-08-26 20:30:00 UTC,2445208.354167,28.7317,-95.2428,0215,0.3770
1982-08-26 21:00:00 UTC,2445208.375000,28.7317,-95.2428,0215,0.3770
1982-08-26 21:30:00 UTC,2445208.395833,28.7317,-95.2428,0215,0.3770
1982-08-26 22:00:00 UTC,2445208.416667,28.7317,-95.2428,0215,0.3770
1982-08-26 22:30:00 UTC,2445208.437500,28.7317,-95.2428,0215,0.3760
1982-08-26 23:00:00 UTC,2445208.458333,28.7317,-95.2428,0215,0.3750
1982-08-26 23:30:00 UTC,2445208.479167,28.7317,-95.2428,0215,0.3750
1982-08-27 00:00:00 UTC,2445208.500000,28.7317,-95.2428,0215,0.3740
1982-08-27 00:30:00 UTC,2445208.520833,28.7317,-95.2428,0215,0.3730
1982-08-27 01:00:00 UTC,2445208.541667,28.7317,-95.2428,0215,0.3730
1982-08-27 01:30:00 UTC,2445208.562500,28.7317,-95.2428,0215,0.3720
1982-08-27 02:00:00 UTC,2445208.583333,28.7317,-95.2428,0215,0.3710
1982-08-27 02:30:00 UTC,2445208.604167,28.7317,-95.2428,0215,0.3700
1982-08-27 03:00:00 UTC,2445208.625000,28.7317,-95.2428,0215,0.3700
1982-08-27 03:30:00 UTC,2445208.645833,28.7317,-95.2428,0215,0.3700
1982-08-27 04:00:00 UTC,2445208.666667,28.7317,-95.2428,0215,0.3730
1982-08-27 04:30:00 UTC,2445208.687500,28.7317,-95.2428,0215,0.3760
1982-08-27 05:00:00 UTC,2445208.708333,28.7317,-95.2428,0215,0.3780
1982-08-27 05:30:00 UTC,2445208.729167,28.7317,-95.2428,0215,0.3780
1982-08-27 06:00:00 UTC,2445208.750000,28.7317,-95.2428,0215,0.3770
1982-08-27 06:30:00 UTC,2445208.770833,28.7317,-95.2428,0215,0.3770
1982-08-27 07:00:00 UTC,2445208.791667,28.7317,-95.2428,0215,0.3790
1982-08-27 07:30:00 UTC,2445208.812500,28.7317,-95.2428,0215,0.3800
1982-08-27 08:00:00 UTC,2445208.833333,28.7317,-95.2428,0215,0.3810
1982-08-27 08:30:00 UTC,2445208.854167,28.7317,-95.2428,0215,0.3810
1982-08-27 09:00:00 UTC,2445208.875000,28.7317,-95.2428,0215,0.3800
1982-08-27 09:30:00 UTC,2445208.895833,28.7317,-95.2428,0215,0.3800
1982-08-27 10:00:00 UTC,2445208.916667,28.7317,-95.2428,0215,0.3820
1982-08-27 10:30:00 UTC,2445208.937500,28.7317,-95.2428,0215,0.3850
1982-08-27 11:00:00 UTC,2445208.958333,28.7317,-95.2428,0215,0.3850
1982-08-27 11:30:00 UTC,2445208.979167,28.7317,-95.2428,0215,0.3790
1982-08-27 12:00:00 UTC,2445209.000000,28.7317,-95.2428,0215,0.3770
1982-08-27 12:30:00 UTC,2445209.020833,28.7317,-95.2428,0215,0.3780
1982-08-27 13:00:00 UTC,2445209.041667,28.7317,-95.2428,0215,0.3800
1982-08-27 13:30:00 UTC,2445209.062500,28.7317,-95.2428,0215,0.3810
1982-08-27 14:00:00 UTC,2445209.083333,28.7317,-95.2428,0215,0.3800
1982-08-27 14:30:00 UTC,2445209.104167,28.7317,-95.2428,0215,0.3800
1982-08-27 15:00:00 UTC,2445209.125000,28.7317,-95.2428,0215,0.3790
1982-08-27 15:30:00 UTC,2445209.145833,28.7317,-95.2428,0215,0.3780
1982-08-27 16:00:00 UTC,2445209.166667,28.7317,-95.2428,0215,0.3780
1982-08-27 16:30:00 UTC,2445209.187500,28.7317,-95.2428,0215,0.3790
1982-08-27 17:00:00 UTC,2445209.208333,28.7317,-95.2428,0215,0.3800
1982-08-27 17:30:00 UTC,2445209.229167,28.7317,-95.2428,0215,0.3810
1982-08-27 18:00:00 UTC,2445209.250000,28.7317,-95.2428,0215,0.3810
1982-08-27 18:30:00 UTC,2445209.270833,28.7317,-95.2428,0215,0.3820
1982-08-27 19:00:00 UTC,2445209.291667,28.7317,-95.2428,0215,0.3810
1982-08-27 19:30:00 UTC,2445209.312500,28.7317,-95.2428,0215,0.3810
1982-08-27 20:00:00 UTC,2445209.333333,28.7317,-95.2428,0215,0.3800
1982-08-27 20:30:00 UTC,2445209.354167,28.7317,-95.2428,0215,0.3810
1982-08-27 21:00:00 UTC,2445209.375000,28.7317,-95.2428,0215,0.3830
1982-08-27 21:30:00 UTC,2445209.395833,28.7317,-95.2428,0215,0.3820
1982-08-27 22:00:00 UTC,2445209.416667,28.7317,-95.2428,0215,0.3810
1982-08-27 22:30:00 UTC,2445209.437500,28.7317,-95.2428,0215,0.3810
1982-08-27 23:00:00 UTC,2445209.458333,28.7317,-95.2428,0215,0.3810
1982-08-27 23:30:00 UTC,2445209.479167,28.7317,-95.2428,0215,0.3810
1982-08-28 00:00:00 UTC,2445209.500000,28.7317,-95.2428,0215,0.3800
1982-08-28 00:30:00 UTC,2445209.520833,28.7317,-95.2428,0215,0.3810